Regional Weather Roundup
Issued by NWS

Home | Current Version | Previous Version | Graphics & Text | Print | Product List | Glossary On
Versions: 1 2 3 4 5 6 7 8 9 10 11 12 13 14 15 16 17 18 19 20 21 22 23 24 25 26 27 28 29 30 31 32 33 34 35 36 37 38 39 40 41 42 43 44 45 46 47 48 49 50
000
ASUS43 KIND 261309
RWRIN

WEATHER ROUNDUP FOR INDIANA
NATIONAL WEATHER SERVICE INDIANAPOLIS IN
800 AM EST MON JAN 26 2015

NOTE: "FAIR" INDICATES FEW OR NO CLOUDS BELOW 12,000 FEET WITH NO
SIGNIFICANT WEATHER AND/OR OBSTRUCTIONS TO VISIBILITY.

* - STATION DOES NOT REPORT WEATHER SUCH AS PRECIPITATION OR FOG.

+ - STATION NOT QUALITY CONTROLLED BY THE NATIONAL WEATHER SERVICE.
    USE DATA WITH CAUTION...ESPECIALLY DEWPOINT AND RELATIVE
    HUMIDITY OBSERVATIONS.

INZ001>003-010>013-019-020-261400-
NORTHWEST INDIANA

CITY           SKY/WX    TMP DP  RH WIND       PRES   REMARKS
GARY /AIRPORT/ PTCLDY    18   9  68 SE7       29.99R WCI   8
KNOX *+        CLEAR     10   1  68 N3        29.96R
LA PORTE +     CLEAR     13  10  90 NE3       29.96S
MICHIGAN CITY+ PTCLDY    12   5  73 CALM      29.98S
MONTICELLO +   CLEAR     12   8  85 N3        29.95S
RENSSELAER +   CLEAR     18  16  93 N3        29.98R
VALPARAISO     CLEAR     11   7  84 CALM      29.97R

$$

LMZ046-743>745-261400-
SOUTHERN LAKE MICHIGAN

STATION/POSITION TIME  TEMP WIND        PRES
                       AIR  DIR/SP/G
                 (UTC) (F)  (DEG/KT/KT) (MB)
MICHIGAN CITY    1300   16   70/  4/  5   N/A

$$

INZ004-005-014>016-021>024-261400-
NORTH CENTRAL INDIANA

CITY           SKY/WX    TMP DP  RH WIND       PRES   REMARKS
ELKHART        CLEAR     10   5  79 CALM      29.97R
GOSHEN         CLEAR     11   6  81 N6        29.95R WCI   1
LOGANSPORT +   CLEAR     10   9  92 CALM      29.96R
PERU/GRISSOM   PTCLDY    12   7  81 N5        29.93R WCI   4
ROCHESTER +    PTCLDY    12  10  92 NE3       29.96R
SOUTH BEND     CLEAR     10   5  80 N6        29.97R WCI   0
WARSAW +       PTCLDY     9   5  85 CALM      29.94R

$$

INZ006>009-017-018-025>027-261400-
NORTHEAST INDIANA

CITY           SKY/WX    TMP DP  RH WIND       PRES   REMARKS
ANGOLA *+      CLEAR      5   1  85 CALM      29.91S
AUBURN +       PTCLDY     9   3  78 N3        29.93F
FORT WAYNE     PTCLDY     7   3  84 NW6       29.94R WCI  -3
HUNTINGTON +   MOCLDY     9   3  76 CALM      29.94S

$$

INZ028-029-035-036-043>045-051>053-261400-
WEST CENTRAL INDIANA

CITY           SKY/WX    TMP DP  RH WIND       PRES   REMARKS
CRAWFORDSVL +  PTCLDY    19  14  79 NW8       29.95R WCI   9
GREENCASTLE +  CLOUDY    25  18  74 N5        29.94S WCI  19
LAFAYETTE      CLEAR     16  11  80 CALM      29.97R
TERRE HAUTE    CLOUDY    27  20  75 NW6       29.96S WCI  20

$$

INZ030>032-037>040-046>048-054>057-064-065-261400-
CENTRAL INDIANA

CITY           SKY/WX    TMP DP  RH WIND       PRES   REMARKS
CP ATTERBURY + PTCLDY    21  18  86 NW6       29.94R WCI  14
COLUMBUS       CLOUDY    21  16  79 NW13      29.94R WCI   9
INDIANAPOLIS   MOCLDY    17  12  80 N7        29.93R WCI   8
-EAGLE CREEK   MOCLDY    19  12  74 N5        29.93R WCI  12
KOKOMO *+      PTCLDY    12   5  73 NE5       29.94R WCI   4
MARION +       PTCLDY    13   7  78 N6        29.94S WCI   4
MT COMFORT *+  CLEAR     18   9  68 N7        29.93R WCI   8
SHELBYVILLE    CLEAR     20  12  71 N9        29.92R WCI   9
ZIONSVILLE +   PTCLDY    19  12  76 N5        29.93S WCI  12

$$

INZ033-034-041-042-049-050-058-059-261400-
EAST CENTRAL INDIANA

CITY           SKY/WX    TMP DP  RH WIND       PRES   REMARKS
MUNCIE         PTCLDY    13   8  81 N8        29.91R WCI   2

$$

INZ060-061-067>069-081>083-085>088-261400-
SOUTHWEST INDIANA

CITY           SKY/WX    TMP DP  RH WIND       PRES   REMARKS
EVANSVILLE     CLOUDY    31  25  78 NW5       29.99S WCI  26
HUNTINGBURG *+ CLOUDY    27  19  74 N8        29.97R WCI  18
WASHINGTON +   CLOUDY    28  22  78 NW8       29.97R WCI  20

$$

INZ062-063-066-070>080-084-089>092-261400-
SOUTH CENTRAL AND SOUTHEAST INDIANA

CITY           SKY/WX    TMP DP  RH WIND       PRES   REMARKS
BLOOMINGTON    PTCLDY    23  17  78 NW3       29.93R
NORTH VERNON + CLOUDY    23  21  93 N7        29.92  WCI  15

$$




USA.gov is the U.S. government's official web portal to all federal, state and local government web resources and services.